#timestamp,LO_Frequency,Hit,StdDev 
1683208815.4,286046998.1,N
1683208835.3,286047001.0,N
1683208855.1,286047000.7,N
1683208875.9,286047001.0,N
1683208895.7,286046998.1,N
1683208915.5,286046999.3,N
1683208935.4,286046999.3,N
1683208955.2,286046997.3,N
1683208975.1,286046997.7,N
1683208976.0,286046997.7,N
1683208995.8,286046997.2,N
1683209015.6,286046995.5,Y
1683209035.5,286046997.1,P
1683209055.3,286046999.3,N
1683209075.1,286046999.6,N
1683209095.9,286046996.7,Y
1683209115.7,286047000.4,P
1683209135.6,286047000.6,N
1683209155.4,286047002.7,P
1683209175.2,286047002.3,N
1683209195.1,286046999.9,N
1683209196.0,286046999.9,N
1683209215.8,286047001.2,N
1683209235.6,286047001.1,N
1683209255.5,286046999.1,N
1683209275.3,286046997.6,N
1683209295.2,286046996.1,N
1683209315.9,286046996.0,N
1683209335.7,286046995.3,N
1683209355.6,286046999.5,N
1683209375.4,286046999.1,N
1683209395.2,286046997.5,N
1683209415.1,286046997.1,N
1683209416.0,286046997.1,N
1683209435.8,286046999.6,N
1683209455.6,286046999.6,N
1683209475.5,286046999.6,N
1683209495.3,286046996.9,N
1683209515.2,286046998.0,N
1683209535.9,286046996.3,N
1683209555.7,286046996.3,N
1683209575.6,286046995.9,N
1683209595.4,286046995.7,N
1683209615.2,286046997.9,N
1683209635.1,286046997.3,N
1683209636.0,286046997.3,N
1683209655.8,286046996.5,N
1683209675.7,286046998.9,N
1683209695.5,286046996.9,N
1683209715.3,286046997.9,N
1683209735.2,286046997.5,N
1683209755.9,286046997.2,N
1683209775.7,286046995.4,Y
1683209795.6,286046999.0,P
1683209815.4,286046999.3,N
1683209835.3,286046999.5,N
1683209855.1,286046998.1,N
1683209856.0,286046998.1,N
1683209875.8,286046997.7,Y
1683209895.7,286046999.1,P
1683209915.5,286046999.5,N
1683209935.3,286046997.3,P
1683209955.2,286046997.3,Y
1683209975.0,286047000.8,P
1683209975.9,286047000.8,N
1683209995.8,286046998.6,N
1683210015.6,286046998.3,N
1683210035.4,286047011.9,Y
1683210055.3,286047002.7,P
1683210075.1,286046999.9,N
1683210095.9,286046998.2,N
1683210115.7,286047001.2,N
1683210135.5,286047001.2,N
1683210155.4,286046999.9,N
1683210175.2,286047001.0,N
1683210195.1,286047001.0,N
1683210196.0,286047001.0,N
1683210215.8,286047000.9,N
1683210235.6,286047000.3,N
1683210255.5,286047001.1,N
1683210275.3,286047000.8,N
1683210295.1,286046998.4,N
1683210315.9,286047001.2,N
1683210335.7,286046998.6,N
1683210355.6,286046998.3,N
1683210375.4,286046998.4,N
1683210395.2,286046999.3,N
1683210415.1,286046998.5,N
1683210416.0,286046998.5,N
1683210435.8,286047000.9,N
1683210455.6,286047000.4,N
1683210475.5,286047002.7,N
1683210495.3,286047000.3,N
1683210515.2,286047000.6,N
1683210535.9,286047000.6,N
1683210555.7,286046999.8,N
1683210575.6,286047000.7,N
1683210595.4,286047000.8,N
1683210615.2,286047000.5,N
1683210635.1,286047000.0,N
1683210636.0,286047000.0,N
1683210655.8,286047000.5,N
1683210675.6,286046999.8,N
1683210695.5,286046999.7,N
1683210715.3,286047004.2,Y
1683210735.2,286047004.3,P
1683210755.9,286047004.1,N
1683210775.7,286047003.7,N
1683210795.6,286047003.0,N
1683210815.4,286047003.3,N
1683210835.2,286047003.8,N
1683210855.1,286047005.4,Y
1683210856.0,286047005.4,P
1683210875.8,286047000.2,N
1683210895.7,286047000.3,N
1683210915.5,286046999.8,N
1683210935.3,286047000.6,N
1683210955.2,286047000.4,N
1683210975.0,286046999.7,N
1683210975.9,286046999.7,N
1683211025.8,286046999.7,E
1683211035.7,286047001.7,N
1683211055.5,286047001.5,P
1683211075.4,286047001.9,P
1683211095.2,286047002.3,Y
1683211115.1,286047000.4,P
1683211116.0,286047000.4,N
1683211135.8,286046999.7,N
1683211155.6,286047001.2,N
1683211175.5,286046999.9,N
1683211195.3,286047000.6,N
1683211215.1,286047000.3,N
1683211235.9,286047000.4,N
1683211255.7,286047001.1,N
1683211275.6,286047001.1,N
1683211295.4,286046998.8,N
1683211315.2,286046999.4,N
1683211335.1,286046999.2,N
1683211336.0,286046999.2,N
1683211355.8,286046999.5,N
1683211375.6,286046998.8,N
1683211395.5,286046999.0,N
1683211415.3,286047001.1,N
1683211435.2,286047000.9,N
1683211455.9,286046999.0,N
1683211475.7,286046998.8,N
1683211495.6,286046998.4,N
1683211515.4,286046998.7,N
1683211535.2,286047000.7,N
1683211555.1,286047000.6,N
1683211556.0,286047000.6,N
1683211575.8,286047000.6,N
1683211595.7,286047000.6,N
1683211615.5,286047000.1,N
1683211635.3,286047002.7,N
1683211655.2,286047002.5,N
1683211675.0,286047002.8,N
1683211675.9,286047002.8,N
1683211695.7,286047000.6,N
1683211715.6,286046999.9,N
1683211735.4,286047001.7,N
1683211755.3,286047002.2,N
1683211775.1,286047002.4,N
1683211776.0,286047002.4,N
1683211795.8,286047000.8,N
1683211815.7,286046998.7,N
1683211835.5,286047001.0,N
1683211855.3,286047000.1,N
1683211875.2,286046998.9,N
1683211895.0,286046996.8,N
1683211895.9,286046996.8,N
1683211915.8,286046999.3,N
1683211935.6,286046998.7,N
1683211955.4,286046998.6,N
1683211975.3,286046999.3,N
1683211995.1,286046999.4,N
1683212015.8,286046997.3,N
1683212035.7,286046997.6,N
1683212055.5,286046995.6,N
1683212075.4,286046994.9,N
1683212095.2,286046995.3,N
1683212115.0,286046995.0,N
1683212115.9,286046995.0,N
1683212135.8,286046997.4,N
1683212155.6,286046995.2,N
1683212175.4,286046997.9,N
1683212195.3,286046997.7,N
1683212215.1,286046999.6,N
1683212235.9,286046997.2,N
1683212255.7,286046996.6,N
1683212275.5,286046999.6,N
1683212295.4,286046997.6,N
1683212315.2,286046996.9,N
1683212335.0,286046997.2,N
1683212335.9,286046997.2,N
1683212355.8,286046996.7,N
1683212375.6,286046996.5,N
1683212395.4,286046999.6,N
